Location: Unspecified
(0.0000°N, 0.0000°E)
Time: 07:38:08
(UTC+00:00)

deb Explorer IX - Pass Details

Date: 17 December 2018
Orbit: 536 x 1117 km, 38.8° (Epoch: 17 March)

Event Time Altitude Azimuth Distance (km) Brightness Sun altitude
Exits shadow 02:48:09 19° 158° (SSE) 2,038 ? -42.1°
Drops below altitude 10° 02:50:08 10° 149° (SSE) 2,688 ? -41.7°
Sets 02:53:08 0° 143° (SE) 3,724 ? -41.1°
